Preview of NWS' New Version of Forecast
This preview is not operational and should not be used for support decisions.

Regional Weather Roundup (RWR)

Issued by Gray - Portland, ME (GYX)

                            
000
ASUS41 KGYX 241110
RWRGYX
WEATHER ROUNDUP FOR MAINE AND NEW HAMPSHIRE
NATIONAL WEATHER SERVICE GRAY ME
700 AM EDT MON JUN 24 2019

MEZ002-005-006-010-012-015-018-020-021-024-026-027-029-241200-
MAINE
  
CITY           SKY/WX    TMP DP  RH WIND       PRES   REMARKS
PORTLAND       FAIR      63  50  62 N3        29.82S                  
SANFORD        FAIR      62  53  72 CALM      29.83R                  
BAR HARBOR     FAIR      55  52  89 CALM      29.82R                  
WISCASSET      FAIR      59  52  77 CALM      29.83R                  
ROCKLAND       FAIR      58  52  80 W3        29.82R                  
FRYEBURG       FAIR      59  52  77 CALM      29.84S                  
LEWISTONAUBURN FAIR      57  51  80 NE3       29.83S                  
AUGUSTA        FAIR      59  47  64 NW7       29.84R                  
WATERVILLE     FAIR      55  49  80 CALM      29.82R                  
BANGOR         FAIR      58  47  66 N3        29.83R                  
GREENVILLE       N/A     55  45  68 CALM      29.84R                  
MILLINOCKET    FAIR      57  43  59 NW3       29.84R                  
HOULTON        FAIR      53  41  63 N6        29.80R                  
PRESQUE ISLE   FAIR      52  39  61 NW14      29.81R                  
FRENCHVILLE    FAIR      53  37  54 NW9       29.80R                  
CARIBOU        FAIR      53  39  59 NW7       29.79R                  
$$

NHZ002-005-008-009-011-012-014-241200-
NEW HAMPSHIRE
  
CITY           SKY/WX    TMP DP  RH WIND       PRES   REMARKS
PORTSMOUTH     MOSUNNY   65  50  58 N5        29.81R                  
ROCHESTER      FAIR      63  51  65 NW6       29.82R                  
NASHUA         FAIR      64  59  83 NW5       29.84R                  
MANCHESTER     FAIR      63  54  72 CALM      29.82R                  
CONCORD        FAIR      59  52  77 CALM      29.84R                  
LACONIA        FAIR      62  53  72 SW3       29.85R                  
PLYMOUTH       FAIR      57  51  79 CALM      29.86R                  
BERLIN         FAIR      49  45  86 CALM      29.87S                  
WHITEFIELD     FAIR      50  46  86 CALM      29.88R                  
JAFFREY        FAIR      58  53  84 S3        29.88R                  
KEENE          FAIR      57  54  89 CALM      29.88R                  
LEBANON        FAIR      57  50  77 CALM      29.87R                  
MT WASHINGTON  MOSUNNY   41  27  56 N38G48      N/A                   
$$

VTZ005-007-008-241200-
VERMONT
  
CITY           SKY/WX    TMP DP  RH WIND       PRES   REMARKS
ST JOHNSBURY     N/A     51  49  92 MISG      29.87R                  
MONTPELIER     FAIR      57  52  83 CALM      29.92R                  
BURLINGTON     FAIR      60  53  77 CALM      29.87R                  
$$

MAZ007-012-024-CTZ003-RIZ002-NYZ038-NYZ072-241200-
SOUTHERN NEW ENGLAND AND NY
  
CITY           SKY/WX    TMP DP  RH WIND       PRES   REMARKS
BOSTON         FAIR      72  52  49 NW12      29.82R                  
WORCESTER      FAIR      65  52  62 NW12      29.87R                  
NANTUCKET      FAIR      68  59  73 NW9       29.81R                  
PROVIDENCE     FAIR      69  62  78 NW3       29.84R                  
HARTFORD       FAIR      63  54  72 CALM      29.86R                  
ALBANY         FAIR      62  53  72 CALM      29.88R                  
NEW YORK CITY  FAIR      72  54  53 NW5       29.88R                  
$$

ANZ081-ANZ082-ANZ150-NHZ014-MEZ023>029-241200-
COASTAL MARINE OBSERVATIONS
  
STATION/POSITION TIME  TEMP    WIND        PRES    WAVE
                       AIR SEA DIR/SP/G            HT/PER
                 (UTC) (F)     (DEG/KT/KT) (MB)    (FT/S)
ISLE OF SHOALS   1000   63     320/  9/ 10 1008.7R
JEFFREYS LEDGE   1038      58                N/A     1/ 8
$$

.............KEY..............
   WCI - WIND CHILL
   TC  - TEMPERATURE IN CELSIUS
   VSB - VISIBILITY IN MILES
   HX  - HEAT INDEX
   FAIR- INDICATES FEW OR NO CLOUDS BELOW 12,000 FT, WITH NO 
         SIGNIFICANT WEATHER AND/OR OBSTRUCTIONS TO VISIBILITY.